OpenBCM V1.07b12 (Linux)

Packet Radio Mailbox

SR1BSZ

[Szczecin_PL JO73GK]

 Login: GUEST





  
I0OJJ  > KEPS     28.10.25 09:32z 316 Lines 15004 Bytes #10 (0) @ AMSAT
BID : ORB25301.1
Read: GUEST
Subj: 2Line Orbital Elements 25301.AMSAT
Path: SR1BSZ<EA2RCF<I0OJJ
Sent: 251028/0021z @:I0OJJ.ITA.EU [Rome] obcm1.08-11-2-gbfe9
From: I0OJJ @ I0OJJ.ITA.EU (Gustavo)
To:   KEPS @ AMSAT
X-Info: This message was generated automatically


QST de W1STR

AMSAT Orbital Elements for Amateur Satellites in TLE Format
From Orbital Analysis Office
New England Sci-Tech STEM Education Center
Natick MA October 28, 2025
To all radio amateurs


These element sets describe the orbits of various satellites 
in use by the amateur radio community. For details see:
www.amsat.org/keplerian-elements-formats/

A daily update of element sets is available at:
www.amsat.org/tle/daily-bulletin.txt
or without bulletin text:
www.amsat.org/tle/dailytle.txt


AO-07
1 07530U 74089B   25299.97247271 -.00000037  00000-0  56345-4 0  9997
2 07530 101.9984 305.7437 0012022 215.4566 201.3193 12.53692781331295
UO-11
1 14781U 84021B   25300.85977046  .00002729  00000-0  28930-3 0  9997
2 14781  97.7743 264.6261 0006365 224.3358 135.7351 14.89908821222522
AO-27
1 22825U 93061C   25300.63664589  .00000181  00000-0  86114-4 0  9999
2 22825  98.7207   2.7805 0009380  66.3784 293.8382 14.30851360673743
FO-29
1 24278U 96046B   25300.63784485  .00000013  00000-0  51092-4 0  9998
2 24278  98.5509 175.9504 0349665 339.8039  18.9551 13.53258388441712
NOAA-15
1 25338U 98030A   25300.83429111  .00000209  00000-0  10323-3 0  9993
2 25338  98.5270 322.5426 0009359 312.8905  47.1489 14.27042835428151
GO-32
1 25397U 98043D   25300.83611969  .00000154  00000-0  86650-4 0  9992
2 25397  98.9880 282.9974 0001827 131.7268 228.4067 14.24357572418256
ISS
1 25544U 98067A   25300.68375553  .00015570  00000-0  28487-3 0  9992
2 25544  51.6344  10.4932 0004705 346.2107  13.8753 15.49527127535714
NO-44
1 26931U 01043C   25300.84390573  .00000249  00000-0  12419-3 0  9993
2 26931  67.0485 125.1638 0007136 272.4918  87.5367 14.31814403257187
SO-50
1 27607U 02058C   25300.85961810  .00001776  00000-0  23205-3 0  9991
2 27607  64.5505 127.3713 0069249 305.0760  54.3864 14.82135987230018
CO-55
1 27844U 03031E   25300.50134909  .00000510  00000-0  24067-3 0  9991
2 27844  98.6785 306.9976 0010346 136.5892 223.6104 14.24120830158555
CO-57
1 27848U 03031J   25299.95349124  .00000432  00000-0  20926-3 0  9991
2 27848  98.6813 306.3556 0009933 154.6849 205.4818 14.23437158158195
RS-22
1 27939U 03042A   25300.86655961  .00001915  00000-0  30792-3 0  9995
2 27939  98.3374 113.8535 0010313 287.4466 201.4015 14.72770987181349
CO-58
1 28895U 05043F   25300.34659698  .00002868  00000-0  46879-3 0  9995
2 28895  98.2694  86.6587 0013680 220.8603 139.1578 14.71611216 67491
CO-65
1 32785U 08021C   25300.87864234  .00009184  00000-0  62991-3 0  9990
2 32785  97.8035 273.3588 0011396  95.9956 264.2569 15.06196271950183
CO-66
1 32791U 08021J   25300.88151916  .00021387  00000-0  90868-3 0  9997
2 32791  97.7427 284.5340 0005960  63.5844 296.6003 15.23064257951811
RS-30
1 32953U 08025A   25300.83777353  .00000005  00000-0 -33151-4 0  9993
2 32953  82.5003 139.9755 0019933  98.2946 262.0395 12.43169734790827
NOAA-19
1 33591U 09005A   25300.79421046  .00000086  00000-0  69834-4 0  9996
2 33591  98.9824   6.1848 0013180 331.3257  28.7189 14.13421609861659
SRMSAT
1 37841U 11058D   25300.57006243  .00000517  00000-0  13683-3 0  9992
2 37841  19.9731  27.3738 0011699 163.9841 236.1715 14.11487506724918
ZACUBE-1
1 39417U 13066B   25300.85757568  .00007285  00000-0  60574-3 0  9998
2 39417  97.7985 257.3793 0041418 305.3147  54.4205 14.98345365645900
Delfi-N3xt
1 39428U 13066N   25300.71329976  .00009990  00000-0  96215-3 0  9999
2 39428  97.8298 216.9323 0078728 258.3540 100.8834 14.90808789639934
GOMX-1
1 39430U 13066Q   25300.83870706  .00002565  00000-0  39670-3 0  9990
2 39430  97.6648 150.8346 0132399 103.0452 258.5572 14.68287385635808
LO-74
1 39440U 13066AA  25300.78704413  .00006594  00000-0  64453-3 0  9999
2 39440  97.8633 244.5626 0062460  77.3414 283.4778 14.91221639642325
AO-73
1 39444U 13066AE  25300.85812644  .00011965  00000-0  83691-3 0  9990
2 39444  97.7993 263.6279 0037874 273.1807  86.5086 15.04855038644660
DTUSAT-2
1 40030U 14033W   25300.38554130  .00009165  00000-0  55819-3 0  9999
2 40030  98.0720 279.2925 0007125 319.9900  40.0803 15.10620560617484
EO-80
1 40032U 14033Y   25300.86191661  .00009894  00000-0  60093-3 0  9999
2 40032  98.0607 279.2537 0005916 238.4412 121.6239 15.10704490617538
LILACSAT-2
1 40908U 15049K   25300.84455321  .00016930  00000-0  38745-3 0  9991
2 40908  97.4976 324.8645 0009087  28.4675 331.7066 15.42832766559822
IO-86
1 40931U 15052B   25151.18580175  .00001241  00000-0  78118-4 0  9996
2 40931   6.0006  24.0987 0012733 338.8432  21.1169 14.78805930523159
Horyu-4
1 41340U 16012D   25300.58044906  .00042038  00000-0  84334-3 0  9990
2 41340  30.9954 265.6416 0003386 115.6506 244.4492 15.45433541534396
Lapan A3
1 41603U 16040E   25300.88661343  .00005245  00000-0  17708-3 0  9996
2 41603  97.1433 300.1283 0012449 122.2042 238.0408 15.31020417519243
CAS-2T
1 41847U 16066G   25300.68477944  .00002278  00000-0  32783-3 0  9997
2 41847  98.4078  13.8754 0345489 114.4182 249.3467 14.43958015471236
TechnoSat
1 42829U 17042E   25300.52947704  .00005751  00000-0  43148-3 0  9998
2 42829  97.4048 102.7505 0018877 165.3220 194.8558 15.02874012451739
AO-91
1 43017U 17073E   25300.13411248  .00009999  00000-0  48273-3 0  9990
2 43017  97.4996 167.4264 0166413  50.5492 311.0326 15.07392603430219
S-Net D
1 43186U 18014G   25300.68571847  .00007700  00000-0  43302-3 0  9991
2 43186  97.5471 202.1746 0010670  99.4812 260.7625 15.13507072423554
S-Net B
1 43187U 18014H   25300.69305038  .00007070  00000-0  39809-3 0  9997
2 43187  97.5478 202.1603 0011386  95.7961 264.4569 15.13482502423551
S-Net A
1 43188U 18014J   25300.55338235  .00007540  00000-0  42398-3 0  9997
2 43188  97.5486 202.1914 0011267  96.7045 263.5469 15.13510162423539
S-Net C
1 43189U 18014K   25300.23304529  .00006528  00000-0  36789-3 0  9994
2 43189  97.5503 201.9118 0012843  91.7317 268.5386 15.13469966422033
Ten-Koh
1 43677U 18084G   25300.73177209  .00003696  00000-0  29162-3 0  9991
2 43677  98.0692 118.5327 0009369 156.9752 203.1893 15.01363051381263
PO-101
1 43678U 18084H   25300.80153183  .00004031  00000-0  33682-3 0  9991
2 43678  98.1103 122.4143 0007830 162.4473 197.7021 14.99111641381381
QO-100
1 43700U 18090A   25300.12149642  .00000156  00000-0  00000-0 0  9993
2 43700   0.0213 118.9319 0001997 135.6013 210.7612  1.00274319 25349
MinXSS-2
1 43758U 18099A   25300.60449264  .00025442  00000-0  83833-3 0  9994
2 43758  97.4854   7.4394 0010498  28.0237 332.1567 15.31400918378352
AO-95
1 43770U 18099N   25300.61270814  .00012482  00000-0  57566-3 0  9996
2 43770  97.4739 357.2741 0011467  86.6506 273.6041 15.20331533377805
SNUSat 2
1 43782U 18099AA  25300.11011403  .00010305  00000-0  52273-3 0  9993
2 43782  97.4415 352.3386 0012127  36.9224 323.2842 15.17058258377637
SnugLite
1 43784U 18099AC  25300.41378582  .00013000  00000-0  59403-3 0  9999
2 43784  97.4235 352.5326 0004114  50.0837 310.0760 15.20690140377863
ITASat 1
1 43786U 18099AE  25300.67907517  .00008976  00000-0  48197-3 0  9999
2 43786  97.4392 351.9672 0015316  83.4468 276.8508 15.15050118377657
EAGLET 1
1 43790U 18099AJ  25300.60674859  .00005782  00000-0  35460-3 0  9998
2 43790  97.4590 351.3346 0013254  71.8255 288.4417 15.10447649377199
ESEO
1 43792U 18099AL  25300.82190470  .00002231  00000-0  16895-3 0  9993
2 43792  97.4288 342.8716 0013450  49.3537 310.8856 15.03207794376881
JO-97
1 43803U 18099AX  25300.77768089  .00017259  00000-0  69731-3 0  9990
2 43803  97.4484 358.7970 0007096  25.7580 334.4009 15.24797515378102
Suomi 100
1 43804U 18099AY  25300.77959432  .00014093  00000-0  62478-3 0  9999
2 43804  97.4550 357.6380 0011837  25.8374 334.3450 15.21655432377993
ISAT
1 43879U 18111D   25300.52402280  .00035493  00000-0  96703-3 0  9998
2 43879  97.5879 218.5443 0010779  70.1990 290.0415 15.37344434375133
UWE-4
1 43880U 18111E   25300.74178764  .00026081  00000-0  85933-3 0  9997
2 43880  97.5819 216.1089 0013594  78.3746 281.9020 15.31362274375032
Sparrow
1 43881U 18111F   25300.50447737  .00037272  00000-0  95725-3 0  9995
2 43881  97.6054 222.0179 0009503  94.9000 265.3330 15.39170044375246
Prox-1
1 44339U 19036A   25300.85957041  .00017498  00000-0  20446-2 0  9998
2 44339  23.9955 218.2316 0007165 236.3893 123.5921 14.83477391338840
Taurus 1
1 44530U 19059C   25300.84984993  .00009159  00000-0  16032-2 0  9992
2 44530  98.6221  87.2208 0008714 318.1221  41.9315 14.68046411324503
Duchifat 3
1 44854U 19089C   25300.83889425  .00169910  00000-0  13398-2 0  9991
2 44854  36.9321 172.6613 0009859 306.9747  53.0114 15.69909479324859
TO-108
1 44881U 19093C   25300.84539883  .00001533  00000-0  18150-3 0  9995
2 44881  97.7805  13.4964 0014823 127.6779 232.5783 14.85943166316903
FloripaSat 1
1 44885U 19093G   25300.84009406  .00008208  00000-0  65762-3 0  9999
2 44885  97.8073  28.8397 0011464 112.6062 247.6375 15.00350125317766
RS-44
1 44909U 19096E   25300.49691580  .00000011  00000-0  51460-5 0  9996
2 44909  82.5184 134.3416 0217006 328.6730  30.1588 12.79744939272587
SALSAT
1 46495U 20068K   25300.88583692  .00011007  00000-0  44074-3 0  9994
2 46495  97.8765 285.7317 0012298  43.6771 316.5436 15.25178571279890
CSS (TIANHE-1)
1 48274U 21035A   25300.86339248  .00034641  00000-0  40512-3 0  9992
2 48274  41.4667 295.3795 0010844 295.0845  64.8868 15.60793168256868
TUBIN
1 48900U 21059X   25300.81072876  .00146496  00000-0  75917-3 0  9999
2 48900  97.6728 123.1421 0001658  63.1040 297.0396 15.80627850242017
CUTE
1 49263U 21088D   25300.68444757  .00032145  00000-0  48516-3 0  9990
2 49263  97.4387  21.6020 0006759  83.9503 276.2521 15.54670498226138
